Year,Month,Day,Hour,Minute,Value (Times are PST for temperature in C)
2019,04,16,00,00,0.40
2019,04,16,00,01,0.40
2019,04,16,00,02,0.40
2019,04,16,00,03,0.30
2019,04,16,00,04,0.30
2019,04,16,00,05,0.30
2019,04,16,00,06,0.20
2019,04,16,00,07,0.20
2019,04,16,00,08,0.20
2019,04,16,00,09,0.20
2019,04,16,00,10,0.20
2019,04,16,00,11,0.10
2019,04,16,00,12,0.10
2019,04,16,00,13,0.10
2019,04,16,00,14,0.10
2019,04,16,00,15,0.00
2019,04,16,00,16,0.00
2019,04,16,00,17,-0.10
2019,04,16,00,18,-0.10
2019,04,16,00,19,-0.10
2019,04,16,00,20,-0.20
2019,04,16,00,21,-0.20
2019,04,16,00,22,-0.20
2019,04,16,00,23,-0.20
2019,04,16,00,24,-0.20
2019,04,16,00,25,-0.20
2019,04,16,00,26,-0.20
2019,04,16,00,27,-0.20
2019,04,16,00,28,-0.20
2019,04,16,00,29,-0.20
2019,04,16,00,30,-0.20
2019,04,16,00,31,-0.20
2019,04,16,00,32,-0.30
2019,04,16,00,33,-0.30
2019,04,16,00,34,-0.30
2019,04,16,00,35,-0.30
2019,04,16,00,36,-0.30
2019,04,16,00,37,-0.30
2019,04,16,00,38,-0.30
2019,04,16,00,39,-0.40
2019,04,16,00,40,-0.40
2019,04,16,00,41,-0.40
2019,04,16,00,42,-0.40
2019,04,16,00,43,-0.40
2019,04,16,00,44,-0.50
2019,04,16,00,45,-0.50
2019,04,16,00,46,-0.50
2019,04,16,00,47,-0.50
2019,04,16,00,48,-0.50
2019,04,16,00,49,-0.50
2019,04,16,00,50,-0.50
2019,04,16,00,51,-0.50
2019,04,16,00,52,-0.60
2019,04,16,00,53,-0.60
2019,04,16,00,54,-0.60
2019,04,16,00,55,-0.60
2019,04,16,00,56,-0.60
2019,04,16,00,57,-0.70
2019,04,16,00,58,-0.70
2019,04,16,00,59,-0.70
2019,04,16,01,00,-0.70
2019,04,16,01,01,-0.70
2019,04,16,01,02,-0.70
2019,04,16,01,03,-0.70
2019,04,16,01,04,-0.70
2019,04,16,01,05,-0.70
2019,04,16,01,06,-0.70
2019,04,16,01,07,-0.70
2019,04,16,01,08,-0.70
2019,04,16,01,09,-0.70
2019,04,16,01,10,-0.70
2019,04,16,01,11,-0.70
2019,04,16,01,12,-0.70
2019,04,16,01,13,-0.70
2019,04,16,01,14,-0.70
2019,04,16,01,15,-0.70
2019,04,16,01,16,-0.70
2019,04,16,01,17,-0.80
2019,04,16,01,18,-0.80
2019,04,16,01,19,-0.80
2019,04,16,01,20,-0.80
2019,04,16,01,21,-0.80
2019,04,16,01,22,-0.80
2019,04,16,01,23,-0.80
2019,04,16,01,24,-0.80
2019,04,16,01,25,-0.80
2019,04,16,01,26,-0.80
2019,04,16,01,27,-0.80
2019,04,16,01,28,-0.90
2019,04,16,01,29,-0.90
2019,04,16,01,30,-0.90
2019,04,16,01,31,-0.90
2019,04,16,01,32,-0.90
2019,04,16,01,33,-0.90
2019,04,16,01,34,-0.90
2019,04,16,01,35,-0.90
2019,04,16,01,36,-1.00
2019,04,16,01,37,-1.00
2019,04,16,01,38,-1.00
2019,04,16,01,39,-1.00
2019,04,16,01,40,-1.10
2019,04,16,01,41,-1.10
2019,04,16,01,42,-1.10
2019,04,16,01,43,-1.10
2019,04,16,01,44,-1.10
2019,04,16,01,45,-1.10
2019,04,16,01,46,-1.10
2019,04,16,01,47,-1.10
2019,04,16,01,48,-1.10
2019,04,16,01,49,-1.10
2019,04,16,01,50,-1.10
2019,04,16,01,51,-1.10
2019,04,16,01,52,-1.10
2019,04,16,01,53,-1.10
2019,04,16,01,54,-1.10
2019,04,16,01,55,-1.10
2019,04,16,01,56,-1.10
2019,04,16,01,57,-1.10
2019,04,16,01,58,-1.10
2019,04,16,01,59,-1.20
2019,04,16,02,00,-1.20
2019,04,16,02,01,-1.20
2019,04,16,02,02,-1.20
2019,04,16,02,03,-1.20
2019,04,16,02,04,-1.20
2019,04,16,02,05,-1.20
2019,04,16,02,06,-1.20
2019,04,16,02,07,-1.20
2019,04,16,02,08,-1.20
2019,04,16,02,09,-1.20
2019,04,16,02,10,-1.20
2019,04,16,02,11,-1.20
2019,04,16,02,12,-1.20
2019,04,16,02,13,-1.20
2019,04,16,02,14,-1.20
2019,04,16,02,15,-1.30
2019,04,16,02,16,-1.30
2019,04,16,02,17,-1.30
2019,04,16,02,18,-1.30
2019,04,16,02,19,-1.30
2019,04,16,02,20,-1.30
2019,04,16,02,21,-1.30
2019,04,16,02,22,-1.30
2019,04,16,02,23,-1.30
2019,04,16,02,24,-1.30
2019,04,16,02,25,-1.30
2019,04,16,02,26,-1.30
2019,04,16,02,27,-1.30
2019,04,16,02,28,-1.30
2019,04,16,02,29,-1.30
2019,04,16,02,30,-1.30
2019,04,16,02,31,-1.30
2019,04,16,02,32,-1.40
2019,04,16,02,33,-1.40
2019,04,16,02,34,-1.40
2019,04,16,02,35,-1.40
2019,04,16,02,36,-1.40
2019,04,16,02,37,-1.50
2019,04,16,02,38,-1.50
2019,04,16,02,39,-1.50
2019,04,16,02,40,-1.60
2019,04,16,02,41,-1.60
2019,04,16,02,42,-1.60
2019,04,16,02,43,-1.60
2019,04,16,02,44,-1.60
2019,04,16,02,45,-1.60
2019,04,16,02,46,-1.60
2019,04,16,02,47,-1.70
2019,04,16,02,48,-1.70
2019,04,16,02,49,-1.70
2019,04,16,02,50,-1.70
2019,04,16,02,51,-1.70
2019,04,16,02,52,-1.70
2019,04,16,02,53,-1.80
2019,04,16,02,54,-1.80
2019,04,16,02,55,-1.80
2019,04,16,02,56,-1.80
2019,04,16,02,57,-1.80
2019,04,16,02,58,-1.80
2019,04,16,02,59,-1.80
2019,04,16,03,00,-1.80
2019,04,16,03,01,-1.80
2019,04,16,03,02,-1.80
2019,04,16,03,03,-1.80
2019,04,16,03,04,-1.80
2019,04,16,03,05,-1.80
2019,04,16,03,06,-1.80
2019,04,16,03,07,-1.80
2019,04,16,03,08,-1.80
2019,04,16,03,09,-1.80
2019,04,16,03,10,-1.80
2019,04,16,03,11,-1.80
2019,04,16,03,12,-1.80
2019,04,16,03,13,-1.80
2019,04,16,03,14,-1.80
2019,04,16,03,15,-1.80
2019,04,16,03,16,-1.80
2019,04,16,03,17,-1.90
2019,04,16,03,18,-1.90
2019,04,16,03,19,-1.90
2019,04,16,03,20,-1.90
2019,04,16,03,21,-1.90
2019,04,16,03,22,-1.90
2019,04,16,03,23,-1.90
2019,04,16,03,24,-1.90
2019,04,16,03,25,-1.90
2019,04,16,03,26,-1.90
2019,04,16,03,27,-2.00
2019,04,16,03,28,-2.00
2019,04,16,03,29,-2.00
2019,04,16,03,30,-2.00
2019,04,16,03,31,-2.00
2019,04,16,03,32,-2.10
2019,04,16,03,33,-2.10
2019,04,16,03,34,-2.10
2019,04,16,03,35,-2.10
2019,04,16,03,36,-2.10
2019,04,16,03,37,-2.10
2019,04,16,03,38,-2.10
2019,04,16,03,39,-2.10
2019,04,16,03,40,-2.10
2019,04,16,03,41,-2.10
2019,04,16,03,42,-2.10
2019,04,16,03,43,-2.20
2019,04,16,03,44,-2.20
2019,04,16,03,45,-2.20
2019,04,16,03,46,-2.20
2019,04,16,03,47,-2.20
2019,04,16,03,48,-2.20
2019,04,16,03,49,-2.20
2019,04,16,03,50,-2.20
2019,04,16,03,51,-2.20
2019,04,16,03,52,-2.30
2019,04,16,03,53,-2.30
2019,04,16,03,54,-2.30
2019,04,16,03,55,-2.30
2019,04,16,03,56,-2.30
2019,04,16,03,57,-2.30
2019,04,16,03,58,-2.30
2019,04,16,03,59,-2.30
2019,04,16,04,00,-2.30
2019,04,16,04,01,-2.30
2019,04,16,04,02,-2.30
2019,04,16,04,03,-2.30
2019,04,16,04,04,-2.30
2019,04,16,04,05,-2.30
2019,04,16,04,06,-2.30
2019,04,16,04,07,-2.30
2019,04,16,04,08,-2.30
2019,04,16,04,09,-2.30
2019,04,16,04,10,-2.40
2019,04,16,04,11,-2.40
2019,04,16,04,12,-2.40
2019,04,16,04,13,-2.40
2019,04,16,04,14,-2.40
2019,04,16,04,15,-2.40
2019,04,16,04,16,-2.40
2019,04,16,04,17,-2.40
2019,04,16,04,18,-2.40
2019,04,16,04,19,-2.40
2019,04,16,04,20,-2.50
2019,04,16,04,21,-2.50
2019,04,16,04,22,-2.50
2019,04,16,04,23,-2.50
2019,04,16,04,24,-2.50
2019,04,16,04,25,-2.50
2019,04,16,04,26,-2.50
2019,04,16,04,27,-2.50
2019,04,16,04,28,-2.50
2019,04,16,04,29,-2.50
2019,04,16,04,30,-2.50
2019,04,16,04,31,-2.50
2019,04,16,04,32,-2.50
2019,04,16,04,33,-2.50
2019,04,16,04,34,-2.50
2019,04,16,04,35,-2.50
2019,04,16,04,36,-2.50
2019,04,16,04,37,-2.50
2019,04,16,04,38,-2.50
2019,04,16,04,39,-2.50
2019,04,16,04,40,-2.50
2019,04,16,04,41,-2.50
2019,04,16,04,42,-2.50
2019,04,16,04,43,-2.60
2019,04,16,04,44,-2.60
2019,04,16,04,45,-2.50
2019,04,16,04,46,-2.50
2019,04,16,04,47,-2.60
2019,04,16,04,48,-2.50
2019,04,16,04,49,-2.50
2019,04,16,04,50,-2.50
2019,04,16,04,51,-2.50
2019,04,16,04,52,-2.50
2019,04,16,04,53,-2.50
2019,04,16,04,54,-2.50
2019,04,16,04,55,-2.60
2019,04,16,04,56,-2.60
2019,04,16,04,57,-2.60
2019,04,16,04,58,-2.60
2019,04,16,04,59,-2.60
2019,04,16,05,00,-2.60
2019,04,16,05,01,-2.60
2019,04,16,05,02,-2.70
2019,04,16,05,03,-2.70
2019,04,16,05,04,-2.70
2019,04,16,05,05,-2.70
2019,04,16,05,06,-2.70
2019,04,16,05,07,-2.70
2019,04,16,05,08,-2.70
2019,04,16,05,09,-2.70
2019,04,16,05,10,-2.70
2019,04,16,05,11,-2.80
2019,04,16,05,12,-2.80
2019,04,16,05,13,-2.80
2019,04,16,05,14,-2.80
2019,04,16,05,15,-2.80
2019,04,16,05,16,-2.80
2019,04,16,05,17,-2.80
2019,04,16,05,18,-2.90
2019,04,16,05,19,-2.90
2019,04,16,05,20,-2.90
2019,04,16,05,21,-2.90
2019,04,16,05,22,-2.90
2019,04,16,05,23,-2.90
2019,04,16,05,24,-3.00
2019,04,16,05,25,-3.00
2019,04,16,05,26,-3.00
2019,04,16,05,27,-3.00
2019,04,16,05,28,-3.10
2019,04,16,05,29,-3.10
2019,04,16,05,30,-3.10
2019,04,16,05,31,-3.10
2019,04,16,05,32,-3.10
2019,04,16,05,33,-3.10
2019,04,16,05,34,-3.20
2019,04,16,05,35,-3.20
2019,04,16,05,36,-3.20
2019,04,16,05,37,-3.20
2019,04,16,05,38,-3.20
2019,04,16,05,39,-3.20
2019,04,16,05,40,-3.30
2019,04,16,05,41,-3.30
2019,04,16,05,42,-3.30
2019,04,16,05,43,-3.30
2019,04,16,05,44,-3.30
2019,04,16,05,45,-3.30
2019,04,16,05,46,-3.30
2019,04,16,05,47,-3.30
2019,04,16,05,48,-3.30
2019,04,16,05,49,-3.30
2019,04,16,05,50,-3.30
2019,04,16,05,51,-3.30
2019,04,16,05,52,-3.30
2019,04,16,05,53,-3.30
2019,04,16,05,54,-3.30
2019,04,16,05,55,-3.30
2019,04,16,05,56,-3.30
2019,04,16,05,57,-3.30
2019,04,16,05,58,-3.40
2019,04,16,05,59,-3.40
2019,04,16,06,00,-3.40
2019,04,16,06,01,-3.40
2019,04,16,06,02,-3.40
2019,04,16,06,03,-3.40
2019,04,16,06,04,-3.40
2019,04,16,06,05,-3.40
2019,04,16,06,06,-3.40
2019,04,16,06,07,-3.40
2019,04,16,06,08,-3.40
2019,04,16,06,09,-3.40
2019,04,16,06,10,-3.40
2019,04,16,06,11,-3.40
2019,04,16,06,12,-3.40
2019,04,16,06,13,-3.40
2019,04,16,06,14,-3.40
2019,04,16,06,15,-3.40
2019,04,16,06,16,-3.40
2019,04,16,06,17,-3.40
2019,04,16,06,18,-3.40
2019,04,16,06,19,-3.40
2019,04,16,06,20,-3.40
2019,04,16,06,21,-3.40
2019,04,16,06,22,-3.40
2019,04,16,06,23,-3.40
2019,04,16,06,24,-3.40
2019,04,16,06,25,-3.40
2019,04,16,06,26,-3.40
2019,04,16,06,27,-3.40
2019,04,16,06,28,-3.40
2019,04,16,06,29,-3.50
2019,04,16,06,30,-3.50
2019,04,16,06,31,-3.60
2019,04,16,06,32,-3.60
2019,04,16,06,33,-3.70
2019,04,16,06,34,-3.70
2019,04,16,06,35,-3.70
2019,04,16,06,36,-3.70
2019,04,16,06,37,-3.70
2019,04,16,06,38,-3.80
2019,04,16,06,39,-3.80
2019,04,16,06,40,-3.80
2019,04,16,06,41,-3.80
2019,04,16,06,42,-3.80
2019,04,16,06,43,-3.80
2019,04,16,06,44,-3.80
2019,04,16,06,45,-3.80
2019,04,16,06,46,-3.80
2019,04,16,06,47,-3.80
2019,04,16,06,48,-3.80
2019,04,16,06,49,-3.90
2019,04,16,06,50,-3.90
2019,04,16,06,51,-3.90
2019,04,16,06,52,-3.90
2019,04,16,06,53,-3.90
2019,04,16,06,54,-3.90
2019,04,16,06,55,-3.90
2019,04,16,06,56,-3.90
2019,04,16,06,57,-3.90
2019,04,16,06,58,-3.90
2019,04,16,06,59,-3.90
2019,04,16,07,00,-3.90
2019,04,16,07,01,-3.90
2019,04,16,07,02,-3.90
2019,04,16,07,03,-4.00
2019,04,16,07,04,-4.00
2019,04,16,07,05,-4.00
2019,04,16,07,06,-4.00
2019,04,16,07,07,-4.00
2019,04,16,07,08,-4.00
2019,04,16,07,09,-4.00
2019,04,16,07,10,-4.00
2019,04,16,07,11,-4.00
2019,04,16,07,12,-4.00
2019,04,16,07,13,-4.00
2019,04,16,07,14,-4.00
2019,04,16,07,15,-4.00
2019,04,16,07,16,-4.00
2019,04,16,07,17,-4.00
2019,04,16,07,18,-4.00
2019,04,16,07,19,-4.00
2019,04,16,07,20,-4.10
2019,04,16,07,21,-4.00
2019,04,16,07,22,-4.00
2019,04,16,07,23,-4.10
2019,04,16,07,24,-4.10
2019,04,16,07,25,-4.10
2019,04,16,07,26,-4.10
2019,04,16,07,27,-4.10
2019,04,16,07,28,-4.10
2019,04,16,07,29,-4.10
2019,04,16,07,30,-4.10
2019,04,16,07,31,-4.10
2019,04,16,07,32,-4.10
2019,04,16,07,33,-4.10
2019,04,16,07,34,-4.20
2019,04,16,07,35,-4.20
2019,04,16,07,36,-4.20
2019,04,16,07,37,-4.20
2019,04,16,07,38,-4.20
2019,04,16,07,39,-4.20
2019,04,16,07,40,-4.20
2019,04,16,07,41,-4.30
2019,04,16,07,42,-4.30
2019,04,16,07,43,-4.30
2019,04,16,07,44,-4.30
2019,04,16,07,45,-4.30
2019,04,16,07,46,-4.30
2019,04,16,07,47,-4.30
2019,04,16,07,48,-4.30
2019,04,16,07,49,-4.30
2019,04,16,07,50,-4.30
2019,04,16,07,51,-4.20
2019,04,16,07,52,-4.20
2019,04,16,07,53,-4.20
2019,04,16,07,54,-4.20
2019,04,16,07,55,-4.20
2019,04,16,07,56,-4.20
2019,04,16,07,57,-4.20
2019,04,16,07,58,-4.20
2019,04,16,07,59,-4.20
2019,04,16,08,00,-4.20
2019,04,16,08,01,-4.20
2019,04,16,08,02,-4.10
2019,04,16,08,03,-4.10
2019,04,16,08,04,-4.10
2019,04,16,08,05,-4.10
2019,04,16,08,06,-4.10
2019,04,16,08,07,-4.10
2019,04,16,08,08,-4.10
2019,04,16,08,09,-4.00
2019,04,16,08,10,-4.00
2019,04,16,08,11,-3.90
2019,04,16,08,12,-3.90
2019,04,16,08,13,-3.90
2019,04,16,08,14,-3.90
2019,04,16,08,15,-3.80
2019,04,16,08,16,-3.80
2019,04,16,08,17,-3.80
2019,04,16,08,18,-3.80
2019,04,16,08,19,-3.80
2019,04,16,08,20,-3.80
2019,04,16,08,21,-3.80
2019,04,16,08,22,-3.80
2019,04,16,08,23,-3.80
2019,04,16,08,24,-3.70
2019,04,16,08,25,-3.70
2019,04,16,08,26,-3.70
2019,04,16,08,27,-3.70
2019,04,16,08,28,-3.70
2019,04,16,08,29,-3.70
2019,04,16,08,30,-3.70
2019,04,16,08,31,-3.70
2019,04,16,08,32,-3.70
2019,04,16,08,33,-3.70
2019,04,16,08,34,-3.70
2019,04,16,08,35,-3.60
2019,04,16,08,36,-3.60
2019,04,16,08,37,-3.60
2019,04,16,08,38,-3.60
2019,04,16,08,39,-3.60
2019,04,16,08,40,-3.60
2019,04,16,08,41,-3.60
2019,04,16,08,42,-3.60
2019,04,16,08,43,-3.60
2019,04,16,08,44,-3.60
2019,04,16,08,45,-3.60
2019,04,16,08,46,-3.60
2019,04,16,08,47,-3.60
2019,04,16,08,48,-3.60
2019,04,16,08,49,-3.60
2019,04,16,08,50,-3.70
2019,04,16,08,51,-3.70
2019,04,16,08,52,-3.70
2019,04,16,08,53,-3.70
2019,04,16,08,54,-3.70
2019,04,16,08,55,-3.60
2019,04,16,08,56,-3.60
2019,04,16,08,57,-3.60
2019,04,16,08,58,-3.60
2019,04,16,08,59,-3.60
2019,04,16,09,00,-3.60
2019,04,16,09,01,-3.60
2019,04,16,09,02,-3.60
2019,04,16,09,03,-3.60
2019,04,16,09,04,-3.60
2019,04,16,09,05,-3.60
2019,04,16,09,06,-3.60
2019,04,16,09,07,-3.60
2019,04,16,09,08,-3.60
2019,04,16,09,09,-3.60
2019,04,16,09,10,-3.60
2019,04,16,09,11,-3.60
2019,04,16,09,12,-3.60
2019,04,16,09,13,-3.60
2019,04,16,09,14,-3.60
2019,04,16,09,15,-3.60
2019,04,16,09,16,-3.50
2019,04,16,09,17,-3.50
2019,04,16,09,18,-3.50
2019,04,16,09,19,-3.50
2019,04,16,09,20,-3.50
2019,04,16,09,21,-3.50
2019,04,16,09,22,-3.50
2019,04,16,09,23,-3.50
2019,04,16,09,24,-3.40
2019,04,16,09,25,-3.40
2019,04,16,09,26,-3.40
2019,04,16,09,27,-3.40
2019,04,16,09,28,-3.40
2019,04,16,09,29,-3.40
2019,04,16,09,30,-3.30
2019,04,16,09,31,-3.30
2019,04,16,09,32,-3.30
2019,04,16,09,33,-3.20
2019,04,16,09,34,-3.20
2019,04,16,09,35,-3.10
2019,04,16,09,36,-3.00
2019,04,16,09,37,-2.90
2019,04,16,09,38,-2.80
2019,04,16,09,39,-2.70
2019,04,16,09,40,-2.60
2019,04,16,09,41,-2.40
2019,04,16,09,42,-2.30
2019,04,16,09,43,-2.20
2019,04,16,09,44,-2.10
2019,04,16,09,45,-2.00
2019,04,16,09,46,-1.90
2019,04,16,09,47,-1.90
2019,04,16,09,48,-1.80
2019,04,16,09,49,-1.80
2019,04,16,09,50,-1.70
2019,04,16,09,51,-1.70
2019,04,16,09,52,-1.60
2019,04,16,09,53,-1.60
2019,04,16,09,54,-1.50
2019,04,16,09,55,-1.50
2019,04,16,09,56,-1.40
2019,04,16,09,57,-1.40
2019,04,16,09,58,-1.30
2019,04,16,09,59,-1.20
2019,04,16,10,00,-1.20
2019,04,16,10,01,-1.10
2019,04,16,10,02,-1.00
2019,04,16,10,03,-0.90
2019,04,16,10,04,-0.90
2019,04,16,10,05,-0.80
2019,04,16,10,06,-0.70
2019,04,16,10,07,-0.70
2019,04,16,10,08,-0.70
2019,04,16,10,09,-0.60
2019,04,16,10,10,-0.50
2019,04,16,10,11,-0.50
2019,04,16,10,12,-0.40
2019,04,16,10,13,-0.30
2019,04,16,10,14,-0.30
2019,04,16,10,15,-0.20
2019,04,16,10,16,-0.20
2019,04,16,10,17,-0.10
2019,04,16,10,18,-0.10
2019,04,16,10,19,0.00
2019,04,16,10,20,0.10
2019,04,16,10,21,0.20
2019,04,16,10,22,0.20
2019,04,16,10,23,0.30
2019,04,16,10,24,0.30
2019,04,16,10,25,0.40
2019,04,16,10,26,0.40
2019,04,16,10,27,0.40
2019,04,16,10,28,0.40
2019,04,16,10,29,0.50
2019,04,16,10,30,0.50
2019,04,16,10,31,0.50
2019,04,16,10,32,0.60
2019,04,16,10,33,0.60
2019,04,16,10,34,0.60
2019,04,16,10,35,0.70
2019,04,16,10,36,0.70
2019,04,16,10,37,0.80
2019,04,16,10,38,0.80
2019,04,16,10,39,0.90
2019,04,16,10,40,0.90
2019,04,16,10,41,0.90
2019,04,16,10,42,0.90
2019,04,16,10,43,1.00
2019,04,16,10,44,1.10
2019,04,16,10,45,1.10
2019,04,16,10,46,1.20
2019,04,16,10,47,1.20
2019,04,16,10,48,1.20
2019,04,16,10,49,1.30
2019,04,16,10,50,1.30
2019,04,16,10,51,1.40
2019,04,16,10,52,1.40
2019,04,16,10,53,1.40
2019,04,16,10,54,1.50
2019,04,16,10,55,1.50
2019,04,16,10,56,1.60
2019,04,16,10,57,1.60
2019,04,16,10,58,1.70
2019,04,16,10,59,1.70
2019,04,16,11,00,1.70
2019,04,16,11,01,1.80
2019,04,16,11,02,1.80
2019,04,16,11,03,1.90
2019,04,16,11,04,1.90
2019,04,16,11,05,1.90
2019,04,16,11,06,1.90
2019,04,16,11,07,2.00
2019,04,16,11,08,2.00
2019,04,16,11,09,2.10
2019,04,16,11,10,2.20
2019,04,16,11,11,2.20
2019,04,16,11,12,2.30
2019,04,16,11,13,2.30
2019,04,16,11,14,2.40
2019,04,16,11,15,2.40
2019,04,16,11,16,2.50
2019,04,16,11,17,2.50
2019,04,16,11,18,2.60
2019,04,16,11,19,2.60
2019,04,16,11,20,2.60
2019,04,16,11,21,2.60
2019,04,16,11,22,2.50
2019,04,16,11,23,2.50
2019,04,16,11,24,2.40
2019,04,16,11,25,2.30
2019,04,16,11,26,2.30
2019,04,16,11,27,2.30
2019,04,16,11,28,2.40
2019,04,16,11,29,2.40
2019,04,16,11,30,2.50
2019,04,16,11,31,2.60
2019,04,16,11,32,2.60
2019,04,16,11,33,2.70
2019,04,16,11,34,2.80
2019,04,16,11,35,2.80
2019,04,16,11,36,2.90
2019,04,16,11,37,3.00
2019,04,16,11,38,3.10
2019,04,16,11,39,3.10
2019,04,16,11,40,3.20
2019,04,16,11,41,3.30
2019,04,16,11,42,3.30
2019,04,16,11,43,3.40
2019,04,16,11,44,3.50
2019,04,16,11,45,3.70
2019,04,16,11,46,3.80
2019,04,16,11,47,3.90
2019,04,16,11,48,4.10
2019,04,16,11,49,4.20
2019,04,16,11,50,4.40
2019,04,16,11,51,4.50
2019,04,16,11,52,4.60
2019,04,16,11,53,4.60
2019,04,16,11,54,4.60
2019,04,16,11,55,4.70
2019,04,16,11,56,4.70
2019,04,16,11,57,4.80
2019,04,16,11,58,4.90
2019,04,16,11,59,5.00
2019,04,16,12,00,5.10
2019,04,16,12,01,5.20
2019,04,16,12,02,5.30
2019,04,16,12,03,5.30
2019,04,16,12,04,5.30
2019,04,16,12,05,5.40
2019,04,16,12,06,5.50
2019,04,16,12,07,5.60
2019,04,16,12,08,5.60
2019,04,16,12,09,5.70
2019,04,16,12,10,5.70
2019,04,16,12,11,5.80
2019,04,16,12,12,5.90
2019,04,16,12,13,5.90
2019,04,16,12,14,6.00
2019,04,16,12,15,6.00
2019,04,16,12,16,6.10
2019,04,16,12,17,6.10
2019,04,16,12,18,6.20
2019,04,16,12,19,6.20
2019,04,16,12,20,6.20
2019,04,16,12,21,6.30
2019,04,16,12,22,6.40
2019,04,16,12,23,6.40
2019,04,16,12,24,6.50
2019,04,16,12,25,6.50
2019,04,16,12,26,6.60
2019,04,16,12,27,6.60
2019,04,16,12,28,6.70
2019,04,16,12,29,6.70
2019,04,16,12,30,6.70
2019,04,16,12,31,6.70
2019,04,16,12,32,6.70
2019,04,16,12,33,6.70
2019,04,16,12,34,6.70
2019,04,16,12,35,6.70
2019,04,16,12,36,6.70
2019,04,16,12,37,6.70
2019,04,16,12,38,6.80
2019,04,16,12,39,6.80
2019,04,16,12,40,6.90
2019,04,16,12,41,6.90
2019,04,16,12,42,7.00
2019,04,16,12,43,7.00
2019,04,16,12,44,7.10
2019,04,16,12,45,7.20
2019,04,16,12,46,7.20
2019,04,16,12,47,7.30
2019,04,16,12,48,7.40
2019,04,16,12,49,7.40
2019,04,16,12,50,7.50
2019,04,16,12,51,7.60
2019,04,16,12,52,7.60
2019,04,16,12,53,7.70
2019,04,16,12,54,7.70
2019,04,16,12,55,7.70
2019,04,16,12,56,7.70
2019,04,16,12,57,7.80
2019,04,16,12,58,7.80
2019,04,16,12,59,7.80
2019,04,16,13,00,7.80
2019,04,16,13,01,7.90
2019,04,16,13,02,7.90
2019,04,16,13,03,7.90
2019,04,16,13,04,7.90
2019,04,16,13,05,7.90
2019,04,16,13,06,7.90
2019,04,16,13,07,8.00
2019,04,16,13,08,8.10
2019,04,16,13,09,8.10
2019,04,16,13,10,8.20
2019,04,16,13,11,8.20
2019,04,16,13,12,8.20
2019,04,16,13,13,8.30
2019,04,16,13,14,8.20
2019,04,16,13,15,8.20
2019,04,16,13,16,8.20
2019,04,16,13,17,8.20
2019,04,16,13,18,8.20
2019,04,16,13,19,8.20
2019,04,16,13,20,8.20
2019,04,16,13,21,8.20
2019,04,16,13,22,8.20
2019,04,16,13,23,8.20
2019,04,16,13,24,8.20
2019,04,16,13,25,8.20
2019,04,16,13,26,8.20
2019,04,16,13,27,8.20
2019,04,16,13,28,8.20
2019,04,16,13,29,8.20
2019,04,16,13,30,8.10
2019,04,16,13,31,8.10
2019,04,16,13,32,8.10
2019,04,16,13,33,8.10
2019,04,16,13,34,8.10
2019,04,16,13,35,8.10
2019,04,16,13,36,8.00
2019,04,16,13,37,8.10
2019,04,16,13,38,8.10
2019,04,16,13,39,8.10
2019,04,16,13,40,8.10
2019,04,16,13,41,8.10
2019,04,16,13,42,8.10
2019,04,16,13,43,8.00
2019,04,16,13,44,8.00
2019,04,16,13,45,8.00
2019,04,16,13,46,8.00
2019,04,16,13,47,8.00
2019,04,16,13,48,8.00
2019,04,16,13,49,8.00
2019,04,16,13,50,8.10
2019,04,16,13,51,8.10
2019,04,16,13,52,8.10
2019,04,16,13,53,8.20
2019,04,16,13,54,8.20
2019,04,16,13,55,8.30
2019,04,16,13,56,8.30
2019,04,16,13,57,8.30
2019,04,16,13,58,8.30
2019,04,16,13,59,8.30
2019,04,16,14,00,8.30
2019,04,16,14,01,8.20
2019,04,16,14,02,8.20
2019,04,16,14,03,8.20
2019,04,16,14,04,8.10
2019,04,16,14,05,8.10
2019,04,16,14,06,8.10
2019,04,16,14,07,8.10
2019,04,16,14,08,8.10
2019,04,16,14,09,8.10
2019,04,16,14,10,8.10
2019,04,16,14,11,8.10
2019,04,16,14,12,8.20
2019,04,16,14,13,8.20
2019,04,16,14,14,8.30
2019,04,16,14,15,8.40
2019,04,16,14,16,8.50
2019,04,16,14,17,8.50
2019,04,16,14,18,8.60
2019,04,16,14,19,8.60
2019,04,16,14,20,8.70
2019,04,16,14,21,8.70
2019,04,16,14,22,8.80
2019,04,16,14,23,8.80
2019,04,16,14,24,8.80
2019,04,16,14,25,8.90
2019,04,16,14,26,8.90
2019,04,16,14,27,8.90
2019,04,16,14,28,8.90
2019,04,16,14,29,8.90
2019,04,16,14,30,8.90
2019,04,16,14,31,8.90
2019,04,16,14,32,8.90
2019,04,16,14,33,8.90
2019,04,16,14,34,8.90
2019,04,16,14,35,8.90
2019,04,16,14,36,8.90
2019,04,16,14,37,8.90
2019,04,16,14,38,8.90
2019,04,16,14,39,8.90
2019,04,16,14,40,8.80
2019,04,16,14,41,8.80
2019,04,16,14,42,8.80
2019,04,16,14,43,8.80
2019,04,16,14,44,8.70
2019,04,16,14,45,8.70
2019,04,16,14,46,8.70
2019,04,16,14,47,8.60
2019,04,16,14,48,8.60
2019,04,16,14,49,8.60
2019,04,16,14,50,8.60
2019,04,16,14,51,8.60
2019,04,16,14,52,8.60
2019,04,16,14,53,8.50
2019,04,16,14,54,8.50
2019,04,16,14,55,8.50
2019,04,16,14,56,8.40
2019,04,16,14,57,8.40
2019,04,16,14,58,8.40
2019,04,16,14,59,8.40
2019,04,16,15,00,8.40
2019,04,16,15,01,8.40
2019,04,16,15,02,8.40
2019,04,16,15,03,8.40
2019,04,16,15,04,8.40
2019,04,16,15,05,8.40
2019,04,16,15,06,8.40
2019,04,16,15,07,8.40
2019,04,16,15,08,8.40
2019,04,16,15,09,8.40
2019,04,16,15,10,8.40
2019,04,16,15,11,8.40
2019,04,16,15,12,8.40
2019,04,16,15,13,8.40
2019,04,16,15,14,8.50
2019,04,16,15,15,8.50
2019,04,16,15,16,8.60
2019,04,16,15,17,8.70
2019,04,16,15,18,8.70
2019,04,16,15,19,8.80
2019,04,16,15,20,8.90
2019,04,16,15,21,9.00
2019,04,16,15,22,9.00
2019,04,16,15,23,9.10
2019,04,16,15,24,9.20
2019,04,16,15,25,9.20
2019,04,16,15,26,9.30
2019,04,16,15,27,9.30
2019,04,16,15,28,9.30
2019,04,16,15,29,9.40
2019,04,16,15,30,9.40
2019,04,16,15,31,9.40
2019,04,16,15,32,9.30
2019,04,16,15,33,9.30
2019,04,16,15,34,9.40
2019,04,16,15,35,9.40
2019,04,16,15,36,9.40
2019,04,16,15,37,9.40
2019,04,16,15,38,9.40
2019,04,16,15,39,9.40
2019,04,16,15,40,9.40
2019,04,16,15,41,9.40
2019,04,16,15,42,9.40
2019,04,16,15,43,9.40
2019,04,16,15,44,9.40
2019,04,16,15,45,9.50
2019,04,16,15,46,9.50
2019,04,16,15,47,9.50
2019,04,16,15,48,9.50
2019,04,16,15,49,9.50
2019,04,16,15,50,9.50
2019,04,16,15,51,9.40
2019,04,16,15,52,9.40
2019,04,16,15,53,9.30
2019,04,16,15,54,9.30
2019,04,16,15,55,9.30
2019,04,16,15,56,9.20
2019,04,16,15,57,9.20
2019,04,16,15,58,9.10
2019,04,16,15,59,9.10
2019,04,16,16,00,9.10
2019,04,16,16,01,9.00
2019,04,16,16,02,9.00
2019,04,16,16,03,9.00
2019,04,16,16,04,9.00
2019,04,16,16,05,9.00
2019,04,16,16,06,9.00
2019,04,16,16,07,9.10
2019,04,16,16,08,9.10
2019,04,16,16,09,9.10
2019,04,16,16,10,9.00
2019,04,16,16,11,9.00
2019,04,16,16,12,8.90
2019,04,16,16,13,8.80
2019,04,16,16,14,8.80
2019,04,16,16,15,8.70
2019,04,16,16,16,8.70
2019,04,16,16,17,8.70
2019,04,16,16,18,8.60
2019,04,16,16,19,8.60
2019,04,16,16,20,8.60
2019,04,16,16,21,8.60
2019,04,16,16,22,8.60
2019,04,16,16,23,8.60
2019,04,16,16,24,8.60
2019,04,16,16,25,8.60
2019,04,16,16,26,8.60
2019,04,16,16,27,8.70
2019,04,16,16,28,8.80
2019,04,16,16,29,8.80
2019,04,16,16,30,8.90
2019,04,16,16,31,8.90
2019,04,16,16,32,8.90
2019,04,16,16,33,8.90
2019,04,16,16,34,8.80
2019,04,16,16,35,8.70
2019,04,16,16,36,8.60
2019,04,16,16,37,8.40
2019,04,16,16,38,8.40
2019,04,16,16,39,8.30
2019,04,16,16,40,8.30
2019,04,16,16,41,8.40
2019,04,16,16,42,8.40
2019,04,16,16,43,8.40
2019,04,16,16,44,8.40
2019,04,16,16,45,8.40
2019,04,16,16,46,8.40
2019,04,16,16,47,8.50
2019,04,16,16,48,8.50
2019,04,16,16,49,8.50
2019,04,16,16,50,8.60
2019,04,16,16,51,8.60
2019,04,16,16,52,8.70
2019,04,16,16,53,8.70
2019,04,16,16,54,8.80
2019,04,16,16,55,8.90
2019,04,16,16,56,9.00
2019,04,16,16,57,9.10
2019,04,16,16,58,9.10
2019,04,16,16,59,9.20
2019,04,16,17,00,9.10
2019,04,16,17,01,9.10
2019,04,16,17,02,9.10
2019,04,16,17,03,9.10
2019,04,16,17,04,9.10
2019,04,16,17,05,9.10
2019,04,16,17,06,9.10
2019,04,16,17,07,9.10
2019,04,16,17,08,9.10
2019,04,16,17,09,9.00
2019,04,16,17,10,9.00
2019,04,16,17,11,9.00
2019,04,16,17,12,9.00
2019,04,16,17,13,9.00
2019,04,16,17,14,9.10
2019,04,16,17,15,9.10
2019,04,16,17,16,9.10
2019,04,16,17,17,9.20
2019,04,16,17,18,9.20
2019,04,16,17,19,9.20
2019,04,16,17,20,9.20
2019,04,16,17,21,9.20
2019,04,16,17,22,9.30
2019,04,16,17,23,9.30
2019,04,16,17,24,9.30
2019,04,16,17,25,9.30
2019,04,16,17,26,9.40
2019,04,16,17,27,9.40
2019,04,16,17,28,9.40
2019,04,16,17,29,9.30
2019,04,16,17,30,9.30
2019,04,16,17,31,9.30
2019,04,16,17,32,9.30
2019,04,16,17,33,9.30
2019,04,16,17,34,9.30
2019,04,16,17,35,9.30
2019,04,16,17,36,9.40
2019,04,16,17,37,9.40
2019,04,16,17,38,9.40
2019,04,16,17,39,9.40